Date String (YYYY-MM-DD hh:mm:ss) UTC,Instrument flags,Ambient pressure (hPa),Sample flow (lpm),Bypass flow (lpm),Sample temperature (°C),Ambient temperature (°C),ASC tube jacket temperature (°C),LED temperature (°C),Box temperature (°C),Sample RH (%),Span deviation,Mass concentration (μg/m³),Mass concentration (μg/m³),Mass concentration (μg/m³)
DateTimeUTC,F1_M11,P_M11,Q1_M11,Q2_M11,T1_M11,T2_M11,T3_M11,T4_M11,T5_M11,U1_M11,ZSPAN_M11,X0_M11,X2_M11,X1_M11
2023-04-11 14:00:00,,0832.5,5.00,0.00,25.3,23.7,00.0,33.6,26.9,12.2,0000.0,0012.67,0003.54,0001.86
2023-04-11 14:01:00,,0832.6,5.00,0.00,25.3,23.6,00.0,33.6,26.9,12.5,0000.0,0012.72,0003.57,0001.86
2023-04-11 14:02:00,,0832.5,5.00,0.00,25.3,23.6,00.0,33.6,26.9,12.8,0000.0,0013.22,0003.59,0001.86
2023-04-11 14:03:00,,0832.6,5.00,0.00,25.3,23.6,00.0,33.6,26.9,12.8,0000.0,0013.15,0003.66,0001.87
2023-04-11 14:04:00,,0832.6,5.00,0.00,25.3,23.6,00.0,33.6,26.9,12.9,0000.0,0012.94,0003.66,0001.86
2023-04-11 14:05:00,,0832.6,5.00,0.00,25.3,23.6,00.0,33.6,26.9,12.7,0000.0,0012.56,0003.67,0001.87
2023-04-11 14:06:00,,0832.6,4.99,0.00,25.3,23.6,00.0,33.6,26.9,12.4,0000.0,0011.93,0003.64,0001.86
2023-04-11 14:07:00,,0832.6,5.00,0.00,25.3,23.7,00.0,33.6,26.9,12.4,0000.0,0011.19,0003.62,0001.87
2023-04-11 14:08:00,,0832.5,5.00,0.00,25.3,23.7,00.0,33.6,26.9,12.3,0000.0,0011.35,0003.63,0001.88
2023-04-11 14:09:00,,0832.5,5.00,0.00,25.3,23.7,00.0,33.6,26.9,11.8,0000.0,0011.42,0003.63,0001.87
2023-04-11 14:10:00,,0832.5,5.00,0.00,25.3,23.7,00.0,33.6,26.9,12.1,0000.0,0011.33,0003.64,0001.88
2023-04-11 14:11:00,,0832.5,5.00,0.00,25.3,23.7,00.0,33.6,26.9,12.9,0000.0,0011.11,0003.60,0001.87
2023-04-11 14:12:00,,0832.5,5.00,0.00,25.3,23.7,00.0,33.6,26.9,13.9,0000.0,0012.05,0003.60,0001.85
2023-04-11 14:13:00,,0832.6,5.00,0.00,25.3,23.7,00.0,33.6,26.9,13.6,0000.0,0011.67,0003.63,0001.84
2023-04-11 14:14:00,,0832.5,5.00,0.00,25.3,23.7,00.0,33.6,26.9,13.7,0000.0,0011.08,0003.53,0001.82
2023-04-11 14:15:00,,0832.5,5.00,0.00,25.3,23.7,00.0,33.6,26.9,13.8,0000.0,0011.78,0003.50,0001.82
2023-04-11 14:16:00,,0832.5,5.00,0.00,25.4,23.7,00.0,33.6,27.0,13.3,0000.0,0012.16,0003.45,0001.81
2023-04-11 14:17:00,,0832.6,5.00,0.00,25.4,23.8,00.0,33.6,27.0,12.9,0000.0,0011.89,0003.43,0001.80
2023-04-11 14:18:00,,0832.6,5.00,0.00,25.4,23.8,00.0,33.6,27.0,13.3,0000.0,0011.94,0003.43,0001.80
2023-04-11 14:19:00,,0832.6,5.00,0.00,25.4,23.8,00.0,33.6,27.0,13.2,0000.0,0012.52,0003.45,0001.80
2023-04-11 14:20:00,,0832.6,5.00,0.00,25.4,23.8,00.0,33.6,27.0,13.0,0000.0,0012.53,0003.46,0001.79
2023-04-11 14:21:00,,0832.5,5.00,0.00,25.4,23.8,00.0,33.6,27.0,12.9,0000.0,0012.03,0003.43,0001.79
2023-04-11 14:22:00,,0832.5,4.99,0.00,25.4,23.8,00.0,33.6,27.0,12.7,0000.0,0011.63,0003.47,0001.80
2023-04-11 14:23:00,,0832.5,5.00,0.00,25.4,23.8,00.0,33.6,27.0,12.8,0000.0,0010.89,0003.51,0001.81
2023-04-11 14:24:00,,0832.5,5.00,0.00,25.4,23.8,00.0,33.6,27.0,13.3,0000.0,0011.39,0003.52,0001.82
2023-04-11 14:25:00,,0832.5,4.99,0.00,25.4,23.8,00.0,33.6,27.0,13.3,0000.0,0012.00,0003.60,0001.84
2023-04-11 14:26:00,,0832.5,4.99,0.00,25.4,23.8,00.0,33.6,27.0,13.5,0000.0,0011.78,0003.62,0001.86
2023-04-11 14:27:00,,0832.6,5.00,0.00,25.4,23.7,00.0,33.6,27.0,13.7,0000.0,0011.72,0003.58,0001.86
2023-04-11 14:28:00,,0832.5,5.00,0.00,25.4,23.7,00.0,33.6,27.0,13.7,0000.0,0012.88,0003.61,0001.87
2023-04-11 14:29:00,,0832.5,5.00,0.00,25.4,23.8,00.0,33.6,27.0,13.6,0000.0,0013.37,0003.61,0001.86
2023-04-11 14:30:00,,0832.5,5.00,0.00,25.4,23.8,00.0,33.6,27.0,13.5,0000.0,0013.07,0003.59,0001.87
2023-04-11 14:31:00,,0832.5,5.00,0.00,25.4,23.8,00.0,33.7,27.0,13.2,0000.0,0012.82,0003.54,0001.87
2023-04-11 14:32:00,,0832.5,5.00,0.00,25.4,23.8,00.0,33.7,27.0,13.1,0000.0,0012.82,0003.54,0001.88
2023-04-11 14:33:00,,0832.5,5.00,0.00,25.4,23.8,00.0,33.7,27.0,13.4,0000.0,0012.86,0003.49,0001.88
2023-04-11 14:34:00,,0832.6,5.00,0.00,25.4,23.9,00.0,33.7,27.0,13.4,0000.0,0013.20,0003.47,0001.89
2023-04-11 14:35:00,,0832.5,4.99,0.00,25.4,23.9,00.0,33.7,27.0,13.5,0000.0,0012.63,0003.40,0001.89
2023-04-11 14:36:00,,0832.5,4.99,0.00,25.4,23.9,00.0,33.7,27.1,13.5,0000.0,0012.54,0003.34,0001.90
2023-04-11 14:37:00,,0832.5,5.00,0.00,25.4,23.9,00.0,33.7,27.1,13.5,0000.0,0012.34,0003.31,0001.88
2023-04-11 14:38:00,,0832.5,5.00,0.00,25.5,24.0,00.0,33.7,27.1,13.6,0000.0,0013.01,0003.35,0001.88
2023-04-11 14:39:00,,0832.5,5.00,0.00,25.5,24.0,00.0,33.7,27.1,13.7,0000.0,0012.56,0003.35,0001.89
2023-04-11 14:40:00,,0832.5,5.01,0.00,25.5,24.0,00.0,33.7,27.1,13.6,0000.0,0012.05,0003.37,0001.89
2023-04-11 14:41:00,,0832.5,5.00,0.00,25.5,24.0,00.0,33.7,27.1,14.0,0000.0,0011.64,0003.36,0001.89
2023-04-11 14:42:00,,0832.5,5.00,0.00,25.5,24.0,00.0,33.7,27.1,14.0,0000.0,0011.80,0003.39,0001.91
2023-04-11 14:43:00,,0832.5,4.99,0.00,25.5,24.0,00.0,33.7,27.1,14.1,0000.0,0012.27,0003.40,0001.92
2023-04-11 14:44:00,,0832.5,5.00,0.00,25.5,24.1,00.0,33.7,27.1,13.9,0000.0,0012.36,0003.40,0001.91
2023-04-11 14:45:00,,0832.5,5.00,0.00,25.5,24.1,00.0,33.7,27.1,14.1,0000.0,0012.59,0003.39,0001.90
2023-04-11 14:46:00,,0832.5,5.00,0.00,25.5,24.0,00.0,33.7,27.1,13.9,0000.0,0012.92,0003.42,0001.90
2023-04-11 14:47:00,,0832.5,5.00,0.00,25.5,24.0,00.0,33.8,27.1,14.2,0000.0,0012.49,0003.42,0001.88
2023-04-11 14:48:00,,0832.4,4.99,0.00,25.5,24.0,00.0,33.8,27.0,14.3,0000.0,0012.11,0003.46,0001.88
2023-04-11 14:49:00,,0832.4,4.99,0.00,25.5,24.0,00.0,33.8,27.0,14.5,0000.0,0010.59,0003.46,0001.89
2023-04-11 14:50:00,,0832.3,4.99,0.00,25.5,24.0,00.0,33.8,27.1,14.5,0000.0,0009.82,0003.45,0001.89
2023-04-11 14:51:00,,0832.3,5.00,0.00,25.5,24.0,00.0,33.8,27.1,14.6,0000.0,0010.12,0003.42,0001.90
2023-04-11 14:52:00,,0832.3,5.00,0.00,25.5,24.0,00.0,33.8,27.1,14.3,0000.0,0010.34,0003.39,0001.91
2023-04-11 14:53:00,,0832.3,5.01,0.00,25.5,24.0,00.0,33.8,27.1,14.2,0000.0,0010.28,0003.41,0001.89
2023-04-11 14:54:00,,0832.3,5.00,0.00,25.5,24.0,00.0,33.8,27.1,14.3,0000.0,0009.94,0003.43,0001.88
2023-04-11 14:55:00,,0832.3,5.00,0.00,25.5,24.0,00.0,33.8,27.1,14.3,0000.0,0009.66,0003.46,0001.89
2023-04-11 14:56:00,,0832.4,4.98,0.00,25.5,24.0,00.0,33.8,27.1,14.0,0000.0,0009.35,0003.48,0001.89
2023-04-11 14:57:00,,0832.4,5.00,0.00,25.5,24.0,00.0,33.8,27.1,13.8,0000.0,0008.92,0003.48,0001.90
2023-04-11 14:58:00,,0832.4,5.00,0.00,25.6,24.0,00.0,33.8,27.1,14.1,0000.0,0009.24,0003.50,0001.90
2023-04-11 14:59:00,,0832.4,5.00,0.00,25.6,24.0,00.0,33.8,27.2,14.3,0000.0,0009.49,0003.51,0001.90
